Weather reports worldwide

Advertisment
Loftus, United Kingdom (3275): temperature & dewpoint: 18.06.2017 04:00:00 - 24.06.2017 04:00:00 (BST)Loftus, United Kingdom (3275): temperature 5cm: 18.06.2017 04:00:00 - 24.06.2017 04:00:00 (BST)Loftus, United Kingdom (3275): temperature -100cm: 18.06.2017 04:00:00 - 24.06.2017 04:00:00 (BST)Loftus, United Kingdom (3275): wind speed & gusts: 18.06.2017 04:00:00 - 24.06.2017 04:00:00 (BST)Loftus, United Kingdom (3275): wind direction: 18.06.2017 04:00:00 - 24.06.2017 04:00:00 (BST)Loftus, United Kingdom (3275): reduced air pressure: 18.06.2017 04:00:00 - 24.06.2017 04:00:00 (BST)Loftus, United Kingdom (3275): visibility: 18.06.2017 04:00:00 - 24.06.2017 04:00:00 (BST)Loftus, United Kingdom (3275): precipitation: 18.06.2017 04:00:00 - 24.06.2017 04:00:00 (BST)
Date & Time tt [°C] td [°C] tt 5cm [°C] tt -100cm [°C] ff [km/h] ff [kn] fx [km/h] fx [kn] dd ppp [hPa] vv [km] rr [mm]
24.06.2017 04:00:00 12,5 11,7 - - 16 9 - - WNW 1009,4 27 0,0
24.06.2017 03:00:00 12,8 12,1 - - 15 8 - - W 1009,3 30 0,0
24.06.2017 02:00:00 13,0 12,4 - - 13 7 - - W 1009,0 45 0,0
24.06.2017 01:00:00 13,1 12,5 - - 15 8 - - W 1009,1 45 0,0
24.06.2017 00:00:00 13,8 13,4 - - 15 8 - - W 1009,4 10 0,6
23.06.2017 23:00:00 13,7 13,0 - - 9 5 - - NW 1009,8 4,1 0,6
23.06.2017 22:00:00 15,6 13,7 - - 24 13 - - WSW 1009,4 40 0,0
23.06.2017 21:00:00 15,4 13,9 - - 24 13 - - WSW 1009,5 27 0,0
23.06.2017 20:00:00 15,6 14,0 - - 24 13 - - SW 1009,5 30 0,0
23.06.2017 19:00:00 15,7 13,9 - - 28 15 50 27 SW 1009,4 9 0,0
23.06.2017 18:00:00 16,7 13,9 - - 35 19 52 28 WSW 1009,4 35 0,0
23.06.2017 17:00:00 15,9 13,9 - - 31 17 54 29 WSW 1009,9 12 0,0
23.06.2017 16:00:00 15,7 13,2 - - 35 19 57 31 WSW 1009,7 40 0,0
23.06.2017 15:00:00 16,7 13,4 - - 39 21 59 32 WSW 1009,0 40 0,0
23.06.2017 14:00:00 16,0 13,2 - - 37 20 57 31 WSW 1009,2 45 0,0
23.06.2017 13:00:00 15,5 13,0 - - 37 20 52 28 WSW 1008,8 40 0,0
23.06.2017 12:00:00 15,2 13,2 - - 35 19 52 28 WSW 1008,9 40 0,0
23.06.2017 11:00:00 14,4 12,8 - - 24 13 - - SW 1008,8 50 0,0
23.06.2017 10:00:00 13,8 12,5 - 14,7 28 15 48 26 SW 1009,1 50 0,2
23.06.2017 09:00:00 14,1 13,1 - - 29 16 - - SW 1008,2 20 0,2
23.06.2017 08:00:00 13,5 12,4 - - 18 10 - - SSW 1008,1 11 0,2
23.06.2017 07:00:00 13,5 11,6 - - 24 13 - - SSW 1008,6 30 0,0
23.06.2017 06:00:00 13,1 11,5 - - 15 8 - - SSW 1008,6 25 0,0
23.06.2017 05:00:00 13,2 11,4 - - 15 8 - - SSW 1009,2 23 0,0
23.06.2017 04:00:00 13,2 11,3 - - 18 10 - - SW 1009,0 30 0,0
23.06.2017 03:00:00 12,6 10,6 - - 18 10 - - SW 1009,7 30 0,0
23.06.2017 02:00:00 12,4 10,2 - - 22 12 - - WSW 1010,4 40 0,0
23.06.2017 01:00:00 12,0 10,2 - - 18 10 - - WSW 1010,8 40 0,0
23.06.2017 00:00:00 11,9 9,9 - - 18 10 - - WSW 1010,6 35 0,0
22.06.2017 23:00:00 12,2 10,0 - - 18 10 - - WSW 1010,9 45 0,0
22.06.2017 22:00:00 12,7 10,9 - - 18 10 - - WSW 1010,8 35 0,0
22.06.2017 21:00:00 12,7 12,5 - - 4 2 - - S 1010,3 0,2 0,0
22.06.2017 20:00:00 13,0 12,3 - - 8 4 - - NNW 1010,0 - 0,0
22.06.2017 19:00:00 15,1 13,5 - - 9 5 - - NNW 1009,6 8 0,0
22.06.2017 18:00:00 15,9 14,4 - - 9 5 - - NW 1009,2 11 0,0
22.06.2017 17:00:00 15,2 13,8 - - 11 6 - - NW 1009,4 10 0,0
22.06.2017 16:00:00 15,6 14,8 - - 13 7 - - NNW 1009,1 5 0,0
22.06.2017 15:00:00 14,8 14,6 - - 9 5 - - NW 1009,0 5 0,0
22.06.2017 14:00:00 14,5 14,5 - - 11 6 - - NW 1008,5 2,5 0,2
22.06.2017 13:00:00 14,2 14,1 - - 13 7 - - NNW 1008,4 0,2 1,4
22.06.2017 12:00:00 15,0 14,7 - - 15 8 - - N 1008,1 0,1 2,0
22.06.2017 11:00:00 17,5 16,2 - - 11 6 - - W 1007,6 6 0,0
22.06.2017 10:00:00 17,8 16,2 - 14,5 13 7 - - WNW 1007,4 7 0,0
22.06.2017 09:00:00 18,3 16,2 - - 16 9 - - WNW 1006,8 10 0,0
22.06.2017 08:00:00 18,1 16,1 - - 21 11 - - W 1006,4 13 0,0
22.06.2017 07:00:00 17,2 15,5 - - 11 6 - - SW 1006,5 10 0,0
22.06.2017 06:00:00 16,6 15,3 - - 15 8 - - SW 1006,3 10 0,0
22.06.2017 05:00:00 17,2 16,3 - - 21 11 - - W 1006,7 5 0,0
22.06.2017 04:00:00 18,0 17,6 - - 13 7 - - W 1006,8 2,0 0,0
22.06.2017 03:00:00 18,6 17,6 - - 4 2 - - W 1006,6 5 0,0
22.06.2017 02:00:00 20,1 18,4 - - 21 11 - - SSW 1007,0 8 0,0
22.06.2017 01:00:00 20,4 18,4 - - 18 10 - - S 1007,4 11 0,0
22.06.2017 00:00:00 20,6 18,4 - - 21 11 - - S 1008,2 12 0,0
21.06.2017 23:00:00 20,1 18,0 - - 9 5 - - SW 1008,6 11 0,0
21.06.2017 22:00:00 20,2 18,1 - - 16 9 - - S 1009,3 14 0,0
21.06.2017 21:00:00 20,5 17,7 - - 11 6 - - S 1009,6 15 0,0
21.06.2017 20:00:00 20,9 18,2 - - 8 4 - - ESE 1010,2 15 0,0
21.06.2017 19:00:00 21,3 17,9 - - 13 7 - - SSE 1010,5 18 0,0
21.06.2017 18:00:00 22,4 18,6 - - 9 5 - - S 1011,3 20 0,0
21.06.2017 17:00:00 21,4 17,8 - - 16 9 - - S 1011,8 18 0,0
21.06.2017 16:00:00 21,2 17,3 - - 18 10 - - S 1013,0 17 0,0
21.06.2017 15:00:00 21,3 18,0 - - 15 8 - - S 1013,4 17 0,0
21.06.2017 14:00:00 19,3 17,7 - - 28 15 - - SSE 1013,6 11 0,0
21.06.2017 13:00:00 15,6 15,6 - - 21 11 - - SE 1015,5 6 0,8
21.06.2017 12:00:00 14,4 14,2 - - 16 9 - - ESE 1016,4 7 0,8
21.06.2017 11:00:00 14,5 13,6 - - 11 6 - - WSW 1017,5 7 1,6
21.06.2017 10:00:00 14,3 12,4 16,1 14,2 13 7 - - E 1016,9 12 0,0
21.06.2017 09:00:00 15,4 12,2 - - 21 11 - - SE 1016,7 35 0,0
21.06.2017 08:00:00 14,0 11,7 - - 11 6 - - SE 1017,9 30 0,0
21.06.2017 07:00:00 13,9 11,4 - - 26 14 - - SE 1018,0 26 0,0
21.06.2017 06:00:00 12,9 10,5 - - 24 13 - - SSE 1018,5 30 0,0
21.06.2017 05:00:00 12,9 10,0 - - 16 9 - - SE 1019,2 29 0,0
21.06.2017 04:00:00 12,9 9,1 - - 26 14 - - SE 1019,1 40 0,0
21.06.2017 03:00:00 12,9 8,5 - - 31 17 - - SE 1019,1 50 0,0
21.06.2017 02:00:00 13,1 8,8 - - 26 14 - - SE 1020,0 45 0,0
21.06.2017 01:00:00 13,0 9,3 - - 28 15 - - SE 1020,4 40 0,0
21.06.2017 00:00:00 12,0 10,4 - - 22 12 - - SE 1020,8 35 0,0
20.06.2017 23:00:00 12,1 10,7 - - 24 13 - - SE 1021,4 20 0,0
20.06.2017 22:00:00 12,5 11,3 - - 16 9 - - SE 1021,7 21 0,0
20.06.2017 21:00:00 12,9 11,2 - - 22 12 - - ESE 1021,5 24 0,0
20.06.2017 20:00:00 14,4 10,5 - - 16 9 - - ESE 1021,4 40 0,0
20.06.2017 19:00:00 15,4 11,2 - - 28 15 - - ESE 1021,0 40 0,0
20.06.2017 18:00:00 16,2 11,7 - - 26 14 - - SE 1021,2 26 0,0
20.06.2017 17:00:00 16,6 13,2 - - 28 15 - - ESE 1021,3 29 0,0
20.06.2017 16:00:00 17,8 12,9 - - 26 14 - - ESE 1021,5 18 0,0
20.06.2017 15:00:00 17,2 13,4 - - 24 13 - - E 1021,7 19 0,0
20.06.2017 14:00:00 16,2 12,9 - - 26 14 - - ESE 1021,9 23 0,0
20.06.2017 13:00:00 16,3 12,5 - - 26 14 - - E 1022,2 21 0,0
20.06.2017 12:00:00 16,4 13,6 - - 21 11 - - E 1022,3 45 0,0
20.06.2017 11:00:00 16,1 13,4 - - 21 11 - - E 1022,1 27 0,0
20.06.2017 10:00:00 14,9 13,9 16,4 14,0 15 8 - - E 1021,9 22 0,0
20.06.2017 09:00:00 14,2 13,8 - - 16 9 - - ENE 1021,8 11 0,0
20.06.2017 08:00:00 13,9 13,8 - - 15 8 - - ENE 1021,6 3,7 0,0
20.06.2017 07:00:00 13,7 13,7 - - 15 8 - - ENE 1021,1 0,6 0,0
20.06.2017 06:00:00 13,8 13,7 - - 11 6 - - NNE 1020,8 0,1 0,0
20.06.2017 05:00:00 13,8 13,6 - - 9 5 - - NE 1020,6 4,0 0,0
20.06.2017 04:00:00 13,9 13,8 - - 8 4 - - ENE 1020,4 0,3 0,0
20.06.2017 03:00:00 14,1 14,0 - - 9 5 - - ENE 1020,4 0,1 0,0
20.06.2017 02:00:00 14,5 14,3 - - 8 4 - - NE 1020,6 0,3 0,0
20.06.2017 01:00:00 14,5 14,3 - - 11 6 - - NNE 1020,6 2,2 0,0
20.06.2017 00:00:00 15,1 14,8 - - 13 7 - - NE 1020,4 0,3 0,0
19.06.2017 23:00:00 15,5 14,3 - - 15 8 - - N 1020,2 13 0,0
19.06.2017 22:00:00 16,4 14,1 - - 26 14 - - N 1019,5 21 0,0
19.06.2017 21:00:00 20,0 14,9 - - 8 4 - - SE 1018,4 50 0,0
19.06.2017 20:00:00 20,8 14,4 - - 13 7 - - ESE 1018,1 23 0,0
19.06.2017 19:00:00 22,6 15,1 - - 8 4 - - E 1017,9 10 0,0
19.06.2017 18:00:00 23,0 14,5 - - 15 8 - - ESE 1017,7 35 0,0
19.06.2017 17:00:00 23,6 13,6 - - 15 8 - - E 1017,9 50 0,0
19.06.2017 16:00:00 24,1 13,4 - - 15 8 - - E 1018,1 28 0,0
19.06.2017 15:00:00 24,0 12,6 - - 13 7 - - E 1018,3 30 0,0
19.06.2017 14:00:00 24,2 14,6 - - 11 6 - - NE 1018,6 30 0,0
19.06.2017 13:00:00 23,5 13,9 - - 13 7 - - NNE 1019,0 35 0,0
19.06.2017 12:00:00 22,9 13,8 - - 11 6 - - NNW 1019,4 40 0,0
19.06.2017 11:00:00 23,8 15,3 - - 9 5 - - WNW 1019,4 40 0,0
19.06.2017 10:00:00 23,5 15,4 23,8 13,7 15 8 - - W 1019,4 40 0,0
19.06.2017 09:00:00 21,3 15,6 - - 5 3 - - WNW 1019,8 40 0,0
19.06.2017 08:00:00 20,7 15,1 - - 5 3 - - W 1019,8 35 0,0
19.06.2017 07:00:00 18,0 14,5 - - 4 2 - - SW 1019,9 35 0,0
19.06.2017 06:00:00 15,9 12,6 - - 2 1 - - SE 1020,2 6 0,0
19.06.2017 05:00:00 15,3 11,8 - - 2 1 - - SW 1020,6 2,4 0,0
19.06.2017 04:00:00 15,1 11,4 - - 2 1 - - SSW 1020,9 30 0,0
19.06.2017 03:00:00 14,7 11,6 - - 0 0 - - N 1021,3 26 0,0
19.06.2017 02:00:00 15,8 11,8 - - 0 0 - - N 1021,6 29 0,0
19.06.2017 01:00:00 16,6 12,4 - - 13 7 - - W 1021,6 19 0,0
19.06.2017 00:00:00 17,1 12,2 - - 9 5 - - SW 1021,6 18 0,0
18.06.2017 23:00:00 17,4 12,9 - - 9 5 - - SW 1021,7 16 0,0
18.06.2017 22:00:00 18,4 12,7 - - 9 5 - - SW 1021,5 12 0,0
18.06.2017 21:00:00 20,7 13,7 - - 15 8 - - W 1021,2 3,1 0,0
18.06.2017 20:00:00 22,9 14,9 - - 18 10 - - W 1020,9 13 0,0
18.06.2017 19:00:00 24,8 15,0 - - 18 10 - - WSW 1020,8 7 0,0
18.06.2017 18:00:00 26,0 15,7 - - 21 11 - - WSW 1020,8 6 0,0
18.06.2017 17:00:00 25,3 14,7 - - 9 5 - - ESE 1021,0 35 0,0
18.06.2017 16:00:00 24,9 13,5 - - 15 8 - - ESE 1021,3 45 0,0
18.06.2017 15:00:00 24,2 10,6 - - 16 9 - - ESE 1021,6 40 0,0
18.06.2017 14:00:00 24,3 10,8 - - 16 9 - - E 1021,9 45 0,0
18.06.2017 13:00:00 24,0 9,3 - - 15 8 - - E 1022,3 30 0,0
18.06.2017 12:00:00 23,6 9,1 - - 13 7 - - E 1022,6 45 0,0
18.06.2017 11:00:00 24,0 10,6 - - 8 4 - - ESE 1022,7 40 0,0
18.06.2017 10:00:00 23,0 12,7 23,3 13,4 8 4 - - ESE 1023,1 30 0,0
18.06.2017 09:00:00 21,6 12,5 - - 4 2 - - W 1023,3 5 0,0
18.06.2017 08:00:00 20,0 11,2 - - 8 4 - - SSW 1023,3 9 0,0
18.06.2017 07:00:00 17,9 8,9 - - 4 2 - - SE 1023,3 26 0,0
18.06.2017 06:00:00 14,8 7,7 - - 4 2 - - S 1023,4 16 0,0
18.06.2017 05:00:00 13,0 6,4 - - 11 6 - - SW 1023,4 13 0,0
18.06.2017 04:00:00 12,8 6,9 - - 13 7 - - SW 1023,6 18 0,0

tt = temperature
td = dewpoint
tt 5cm = temperature 5cm
tt -100cm = temperature -100cm
ff = wind speed
fx = gusts
dd = wind direction
ppp = reduced air pressure
vv = visibility
rr = precipitation

Next stations